Rome Ciampino, Italy

3:44 AM CET on February 10, 2016 (GMT +0100)
Ciampino

Weather History for LIRA - July, 2014

Change the Weather History Date:

Monday, July 14, 2014

  Actual Average Record
Temperature  
Mean Temperature 70 °F -  
Max Temperature 76 °F 87 °F 95 °F (2010)
Min Temperature 63 °F 63 °F 59 °F (2004)
Cooling Degree Days 4    
Growing Degree Days 20 (Base 50)    
Moisture  
Dew Point 62 °F    
Average Humidity 77    
Maximum Humidity 94    
Minimum Humidity 54    
Precipitation  
Precipitation 0.02 in 0.04 in - ()
Sea Level Pressure  
Sea Level Pressure 29.92 in    
Wind  
Wind Speed 4 mph ()    
Max Wind Speed 10 mph    
Max Gust Speed -    
Visibility 6.3 miles    
Events Rain , Thunderstorm    
Averages and records for this station are not official NWS values.
T = Trace of Precipitation, MM = Missing Value Source: Averaged Metar Reports

Daily Weather History Graph

Daily Weather History Graph

Search for Another Location

Airport or City:

Trip Planner

Search our weather history database for the weather conditions in past years. The results will help you decide how hot, cold, wet, or windy it might be!

Date:

Astronomy

Jul. 14, 2014 Rise Set
Actual Time 5:47 AM CEST 8:43 PM CEST
Civil Twilight 5:13 AM CEST 9:16 PM CEST
Nautical Twilight 4:31 AM CEST 9:59 PM CEST
Astronomical Twilight 3:42 AM CEST 10:48 PM CEST
Moon 9:58 PM CEST (7/14) 8:12 AM CEST (7/14)
Length of Visible Light 16h 03m
Length of Day
14h 56m
Waning Gibbous, 94% of the Moon is Illuminated
Jul 14
Waning Gibbous
Jul 19
Last Quarter
Jul 27
New
Aug 4
First Quarter
Aug 10
Full

Hourly Weather History & Observations

Time (CEST) Temp. Dew Point Humidity Pressure Visibility Wind Dir Wind Speed Gust Speed Precip Events Conditions
12:15 AM 66.2 °F 64.4 °F 94% 29.95 in 6.2 mi SSE 5.8 mph - N/A   Partly Cloudy
12:45 AM 66.2 °F 62.6 °F 88% 29.95 in 6.2 mi SE 5.8 mph - N/A   Partly Cloudy
1:15 AM 68.0 °F 64.4 °F 88% 29.95 in 6.2 mi SSE 5.8 mph - N/A   Partly Cloudy
1:45 AM 68.0 °F 66.2 °F 94% 29.95 in 6.2 mi SE 5.8 mph - N/A   Partly Cloudy
2:00 AM 68 °F 65 °F 89% 29.96 in 6 mi SE 5.8 mph - -   Scattered Clouds
2:15 AM 66.2 °F 62.6 °F 88% 29.95 in 6.2 mi SE 5.8 mph - N/A   Partly Cloudy
2:45 AM 66.2 °F 60.8 °F 83% 29.95 in 6.2 mi SE 4.6 mph - N/A   Partly Cloudy
3:15 AM 66.2 °F 62.6 °F 88% 29.95 in - SE 4.6 mph - N/A   Clear
3:45 AM 64.4 °F 62.6 °F 94% 29.92 in - SE 4.6 mph - N/A   Clear
4:15 AM 64.4 °F 62.6 °F 94% 29.92 in - Calm Calm - N/A   Clear
4:45 AM 64.4 °F 62.6 °F 94% 29.92 in 6.2 mi ENE 2.3 mph - N/A   Partly Cloudy
5:00 AM 64 °F 62 °F 90% 29.93 in 6 mi ENE 2.3 mph - -   Scattered Clouds
5:15 AM 64.4 °F 60.8 °F 88% 29.92 in 6.2 mi East 2.3 mph - N/A   Partly Cloudy
5:45 AM 62.6 °F 60.8 °F 94% 29.92 in 6.2 mi East 4.6 mph - N/A   Partly Cloudy
6:15 AM 64.4 °F 59.0 °F 83% 29.92 in 6.2 mi East 1.2 mph - N/A   Scattered Clouds
6:45 AM 64.4 °F 60.8 °F 88% 29.92 in 6.2 mi Calm Calm - N/A   Scattered Clouds
7:15 AM 64.4 °F 60.8 °F 88% 29.92 in 6.2 mi East 3.5 mph - N/A   Scattered Clouds
7:45 AM 66.2 °F 62.6 °F 88% 29.92 in 6.2 mi NE 1.2 mph - N/A   Scattered Clouds
8:00 AM 67 °F 63 °F 81% 29.93 in 6 mi NE 1.2 mph - -   Partly Cloudy
8:15 AM 68.0 °F 62.6 °F 83% 29.92 in 6.2 mi North 2.3 mph - N/A   Scattered Clouds
8:45 AM 68.0 °F 62.6 °F 83% 29.92 in 6.2 mi NNE 2.3 mph - N/A   Scattered Clouds
9:15 AM 69.8 °F 62.6 °F 78% 29.92 in 6.2 mi NE 2.3 mph - N/A   Scattered Clouds
9:45 AM 71.6 °F 60.8 °F 69% 29.92 in 6.2 mi NNW 3.5 mph - N/A   Scattered Clouds
10:15 AM 73.4 °F 60.8 °F 65% 29.92 in 6.2 mi NE 1.2 mph - N/A   Scattered Clouds
10:45 AM 75.2 °F 64.4 °F 69% 29.92 in 6.2 mi East 1.2 mph - N/A   Scattered Clouds
11:00 AM 75 °F 64 °F 59% 29.93 in 7 mi East 1.2 mph - -   Partly Cloudy
11:15 AM 75.2 °F 60.8 °F 61% 29.92 in 6.2 mi NNW 3.5 mph - N/A   Scattered Clouds
11:45 AM 75.2 °F 60.8 °F 61% 29.92 in 6.2 mi SW 2.3 mph - N/A   Scattered Clouds
12:15 PM 77.0 °F 59.0 °F 54% 29.92 in 6.2 mi NW 3.5 mph - N/A   Scattered Clouds
12:45 PM 75.2 °F 60.8 °F 61% 29.92 in 6.2 mi West 4.6 mph - N/A   Scattered Clouds
1:15 PM 75.2 °F 60.8 °F 61% 29.92 in 6.2 mi West 5.8 mph - N/A   Scattered Clouds
1:45 PM 75.2 °F 64.4 °F 69% 29.92 in 6.2 mi WSW 8.1 mph - N/A   Scattered Clouds
2:00 PM 75 °F 64 °F 61% 29.91 in 9 mi WSW 8.1 mph - -   Partly Cloudy
2:45 PM 75.2 °F 64.4 °F 69% 29.89 in 6.2 mi WNW 10.4 mph - N/A   Scattered Clouds
3:15 PM 75.2 °F 64.4 °F 69% 29.89 in 6.2 mi WNW 9.2 mph - N/A   Scattered Clouds
3:45 PM 75.2 °F 62.6 °F 65% 29.89 in 6.2 mi WSW 6.9 mph - N/A   Scattered Clouds
4:15 PM 75.2 °F 62.6 °F 65% 29.89 in 6.2 mi West 8.1 mph - N/A   Scattered Clouds
4:45 PM 75.2 °F 64.4 °F 69% 29.89 in 6.2 mi West 9.2 mph - N/A   Scattered Clouds
5:00 PM 75 °F 64 °F 59% 29.90 in 7 mi West 9.2 mph - -   Partly Cloudy
5:15 PM 73.4 °F 62.6 °F 69% 29.89 in 6.2 mi West 6.9 mph - N/A   Scattered Clouds
5:45 PM 73.4 °F 62.6 °F 69% 29.89 in 6.2 mi West 8.1 mph - N/A   Partly Cloudy
6:15 PM 73.4 °F 60.8 °F 65% 29.89 in 6.2 mi WNW 6.9 mph - N/A   Scattered Clouds
6:45 PM 73.4 °F 60.8 °F 65% 29.92 in 6.2 mi WNW 4.6 mph - N/A   Scattered Clouds
7:15 PM 73.4 °F 60.8 °F 65% 29.92 in 6.2 mi West 3.5 mph - N/A Thunderstorm Thunderstorm
7:45 PM 71.6 °F 60.8 °F 69% 29.92 in 6.2 mi WNW 6.9 mph - N/A Thunderstorm Thunderstorm
8:00 PM 72 °F 61 °F 61% 29.92 in 9 mi WNW 6.9 mph - - Thunderstorm Thunderstorm
8:15 PM 68.0 °F 60.8 °F 78% 29.92 in 6.2 mi SW 4.6 mph - N/A Rain , Thunderstorm Light Thunderstorms and Rain
9:15 PM 68.0 °F 60.8 °F 78% 29.92 in 6.2 mi Calm Calm - N/A   Scattered Clouds
10:15 PM 66.2 °F 60.8 °F 83% 29.92 in 6.2 mi Calm Calm - N/A   Scattered Clouds
10:45 PM 66.2 °F 60.8 °F 83% 29.92 in 6.2 mi Calm Calm - N/A   Scattered Clouds
11:00 PM 67 °F 61 °F 75% 29.94 in 7 mi Calm Calm - -   Partly Cloudy
11:15 PM 66.2 °F 60.8 °F 83% 29.95 in 6.2 mi Calm Calm - N/A   Scattered Clouds
11:45 PM 66.2 °F 62.6 °F 88% 29.95 in 6.2 mi Calm Calm - N/A   Scattered Clouds